Theta_e
322 322 322 322 323 323 323 324 324 324 324 325 325 326 327 327 326 324 320 327 333 363 360 342 346 347 349 342 343 341 324 317 320 322 323 331 328 334 342 341 342 344 338 341 346
321 321 321 321 322 322 323 323 323 323 324 324 324 326 327 327 322 317 334 358 361 364 333 333 341 343 335 337 338 333 324 321 327 328 326 331 331 333 333 336 337 338 342 343 346
320 321 321 321 321 322 322 323 323 322 322 323 324 325 326 325 319 319 356 358 362 359 332 335 343 339 334 334 330 331 323 328 329 331 333 330 333 335 332 333 337 335 337 341 343
320 320 320 320 321 321 322 322 322 321 322 323 325 326 326 322 310 328 350 354 358 336 333 343 336 325 326 327 333 326 330 328 330 334 332 330 332 329 329 335 343 341 341 342 340
319 319 318 319 319 320 320 321 321 320 321 323 326 327 318 313 314 340 354 350 337 332 336 341 336 332 325 329 329 326 326 330 331 332 330 334 331 329 330 343 345 343 343 341 341
319 319 318 318 318 319 319 320 319 319 321 324 328 326 316 305 328 338 332 332 333 332 338 343 339 335 328 332 326 331 331 328 329 330 331 330 331 331 331 338 341 341 340 341 342
319 318 318 318 318 318 318 318 318 319 321 324 330 322 311 311 324 327 327 329 333 333 334 344 344 335 336 331 336 332 325 330 330 331 330 332 328 328 333 336 335 336 339 342 342
318 318 318 317 317 317 317 317 317 319 322 326 330 317 308 320 321 321 329 329 331 334 336 340 345 338 335 336 333 326 324 317 326 329 332 328 319 331 333 334 333 334 335 341 343
319 318 318 317 317 317 315 315 318 321 324 327 317 313 307 326 316 320 321 326 330 332 334 341 340 333 334 328 320 326 312 317 321 325 328 326 321 331 334 332 332 333 334 336 339
318 318 318 317 316 315 314 316 320 321 323 324 322 308 316 314 315 317 319 330 326 327 328 330 327 322 323 322 311 315 317 319 319 326 328 322 321 330 332 333 331 333 334 335 335
318 317 317 316 315 314 311 309 309 307 311 309 308 313 315 317 320 314 317 325 326 323 316 323 316 313 319 326 326 324 321 320 323 328 326 321 321 325 331 331 331 331 333 334 336
317 317 316 315 314 313 309 305 311 307 303 315 317 315 316 315 311 312 317 320 321 315 320 317 313 320 326 327 325 322 318 318 325 328 323 321 320 323 329 329 330 333 333 334 336
317 316 316 314 313 311 308 309 315 315 302 310 315 314 313 313 309 308 314 321 318 315 315 312 317 325 323 322 320 319 319 317 317 323 321 320 317 320 326 328 329 333 336 336 336
316 316 315 313 309 310 312 317 317 316 298 305 307 314 315 313 308 317 317 318 317 312 315 313 320 319 318 321 320 313 324 323 322 315 307 316 305 313 321 323 325 324 327 335 336
316 315 313 311 306 307 313 316 312 308 290 310 308 319 313 308 309 312 316 316 311 311 312 311 313 313 313 316 323 317 323 321 322 315 310 311 305 312 318 318 319 324 328 330 337
314 313 312 312 309 312 316 315 311 298 293 306 310 308 305 307 308 309 311 315 315 311 312 311 317 314 313 317 323 323 321 318 318 311 301 309 307 310 314 316 321 324 327 330 337
312 311 310 311 308 313 312 310 295 293 308 306 305 308 305 303 304 305 306 306 304 299 302 308 310 315 316 311 317 315 312 303 300 301 300 312 308 312 318 322 323 323 326 328 333
310 309 310 311 312 312 310 301 293 303 302 310 309 308 304 305 304 304 302 301 305 305 300 300 299 310 315 311 309 309 313 306 297 299 303 312 306 310 322 325 323 326 328 330 330
309 312 312 312 313 312 304 295 297 303 309 306 307 305 303 306 304 303 302 303 305 307 300 298 302 313 315 316 314 308 306 310 303 303 300 306 311 318 321 322 319 322 326 327 328
306 308 311 319 315 310 301 296 301 308 310 309 303 306 302 303 303 301 300 305 305 308 309 304 297 309 314 315 316 310 316 305 304 297 297 306 306 307 315 318 322 320 319 325 330
307 307 316 319 313 304 297 299 305 309 309 306 306 305 305 304 305 302 302 306 309 309 308 306 300 304 310 309 307 311 308 308 307 305 299 297 304 317 318 319 318 318 321 322 329
308 305 317 317 301 301 298 301 303 306 310 308 309 307 306 306 304 304 304 306 311 310 304 305 300 299 303 311 316 313 311 308 302 303 304 302 304 319 319 319 319 321 321 322 331
304 309 319 314 297 298 301 302 304 304 305 306 307 309 310 306 302 308 309 312 312 309 305 305 299 296 298 302 312 306 307 310 309 308 303 301 305 321 319 318 321 322 320 322 326
305 306 311 311 309 303 300 301 301 307 306 307 307 310 307 305 306 305 309 315 313 310 326 313 300 297 295 299 303 303 306 308 305 301 302 307 308 313 317 318 320 320 321 324 328
305 305 310 304 305 305 305 303 302 303 306 307 306 308 306 302 304 305 310 312 312 320 308 304 297 298 301 305 305 305 308 309 305 304 300 308 308 314 317 319 320 317 319 320 325
302 306 310 307 310 306 303 302 302 305 306 304 304 309 308 303 305 305 309 309 306 305 302 303 297 299 299 305 304 304 305 310 310 307 304 306 306 316 317 319 316 317 318 321 322
312 314 310 305 307 305 304 303 304 306 309 310 310 308 307 309 312 311 312 312 309 305 303 301 298 296 295 302 302 297 303 305 306 313 309 307 310 316 316 319 320 315 318 325 327
Wind_Speed
14 14 15 16 15 15 16 15 15 16 15 15 15 14 14 16 19 4 5 6 6 12 5 6 10 16 11 6 5 4 5 6 7 5 5 13 10 9 15 17 11 6 19 15 15
15 15 15 16 16 16 16 16 16 16 16 16 15 15 14 15 5 8 9 7 7 9 3 7 12 6 6 4 7 5 4 6 6 6 7 8 11 10 13 15 20 22 15 15 17
15 15 15 16 16 16 16 17 16 17 17 16 15 14 14 13 5 5 6 9 8 7 5 8 6 16 14 14 2 8 6 6 8 7 12 4 14 4 13 14 22 25 22 17 20
15 15 15 16 16 17 17 17 18 18 18 17 15 14 14 4 3 3 6 5 4 4 5 6 8 7 3 6 8 13 15 8 8 9 9 10 15 13 6 16 22 24 22 14 10
15 15 15 16 16 18 18 17 18 19 18 17 14 13 5 3 9 6 6 5 4 3 5 3 7 7 5 9 15 3 4 9 3 12 6 12 11 13 9 24 23 23 21 18 11
15 15 16 16 17 18 19 18 18 18 18 16 14 11 3 5 6 12 9 6 8 7 7 11 7 18 7 13 6 13 16 7 4 7 9 8 9 6 9 18 22 24 22 20 20
15 16 16 17 18 19 19 20 20 17 17 14 11 5 5 15 1 9 10 6 7 9 11 6 12 9 15 10 5 9 9 8 10 15 4 6 6 9 12 14 16 14 20 19 19
16 16 17 18 18 20 20 20 22 19 14 12 6 4 9 8 10 9 10 9 10 10 12 13 4 8 7 1 3 2 4 5 6 13 7 8 2 6 13 14 16 16 13 21 19
15 17 17 18 19 18 20 24 24 19 10 8 3 3 10 3 6 10 8 9 10 10 11 12 3 6 1 3 3 1 3 1 10 18 10 8 5 13 14 15 14 15 14 12 17
15 16 18 18 18 20 24 24 10 10 6 7 8 5 8 12 8 9 9 9 8 8 9 7 4 5 7 4 6 6 3 5 7 9 8 6 8 14 15 18 17 16 14 13 12
16 16 18 19 18 16 13 5 2 2 5 11 9 7 9 13 13 10 11 9 10 7 7 9 4 7 9 9 9 7 12 10 19 21 9 5 7 9 18 16 17 16 16 15 17
16 17 18 20 20 16 6 5 9 5 7 21 20 19 18 11 8 9 11 9 9 8 8 8 9 14 8 5 4 5 6 6 11 12 8 6 8 10 10 16 16 19 19 19 17
17 18 19 22 26 5 7 11 11 12 4 9 18 12 14 7 6 10 11 9 9 9 11 9 13 17 12 6 7 7 5 5 3 4 6 5 10 7 9 8 11 16 23 23 21
17 18 19 26 3 7 6 12 14 8 4 9 10 12 11 6 7 11 10 10 9 11 14 9 16 18 14 10 6 6 7 7 6 4 4 3 8 7 7 4 7 6 8 17 21
18 18 18 10 8 5 10 17 7 1 5 6 10 8 12 14 7 15 10 10 14 12 8 11 14 14 13 14 7 9 6 5 6 7 4 7 4 5 5 7 6 4 9 3 20
18 17 17 2 5 11 15 15 4 1 8 2 6 9 9 14 14 5 11 8 8 12 14 12 12 10 11 14 9 8 6 4 6 2 3 6 2 3 6 5 5 4 12 8 20
19 16 9 7 6 8 12 4 1 5 8 10 9 11 14 10 12 10 14 12 10 8 14 12 16 13 9 8 7 7 7 2 3 1 5 6 5 5 7 11 14 8 10 6 12
21 25 8 9 9 9 4 1 7 9 15 3 8 10 11 12 14 14 11 11 11 11 5 10 11 13 11 9 6 7 7 5 5 3 5 5 3 6 12 15 15 10 0 3 11
26 3 4 7 14 5 2 6 8 7 10 7 10 12 10 11 8 13 14 13 12 14 12 6 15 14 15 6 7 10 8 4 2 6 4 4 7 8 20 16 5 8 10 8 11
6 5 8 8 13 5 3 6 10 12 16 19 13 7 10 13 12 12 11 9 11 14 16 14 11 12 11 10 8 9 0 2 5 3 4 5 4 9 16 22 18 4 5 6 14
3 4 4 16 10 2 7 8 9 19 18 5 13 9 8 8 16 12 12 13 13 14 13 13 8 23 11 5 9 3 4 6 7 4 4 2 2 9 18 14 6 10 14 11 10
5 4 10 11 4 4 9 5 8 18 20 17 12 9 9 11 4 15 18 13 17 15 11 11 6 10 14 19 18 10 9 8 7 5 3 6 0 9 10 15 12 14 21 14 9
5 5 6 8 4 8 9 14 20 20 19 13 12 7 12 11 7 5 13 16 14 14 12 7 5 7 13 9 6 4 5 8 5 6 6 4 5 8 16 19 22 18 18 11 8
4 4 3 6 9 11 11 15 17 16 21 21 17 9 10 11 9 8 12 8 9 10 11 8 7 8 9 10 1 8 7 7 9 6 5 6 10 6 13 10 8 19 13 1 9
5 6 7 6 10 15 13 12 16 14 14 14 15 10 9 7 7 8 10 12 5 10 6 8 5 7 10 13 8 8 11 12 9 8 2 18 18 22 23 23 20 13 8 14 6
4 5 8 11 11 13 12 13 17 20 12 13 13 10 9 6 7 6 8 8 7 4 5 3 5 6 7 10 8 11 9 3 11 8 6 7 7 19 9 5 5 8 1 7 6
6 7 5 7 8 9 7 15 17 19 18 13 14 9 13 8 7 7 10 11 2 8 6 6 6 2 4 6 7 7 6 5 4 17 8 9 6 11 5 5 10 8 2 5 6
Wind_Direction
10 5 358 354 352 353 346 344 340 337 336 332 331 330 329 325 309 182 240 223 180 172 174 268 239 237 228 105 44 307 98 187 190 228 123 109 101 107 128 135 171 168 142 133 146
3 4 358 351 348 349 344 340 338 334 332 330 329 327 327 332 285 244 236 156 158 158 208 244 285 241 20 123 172 175 205 212 194 205 115 138 132 129 115 104 103 115 129 142 136
0 360 355 351 345 343 342 336 335 331 329 328 328 326 322 322 290 236 101 158 173 182 257 292 334 79 80 291 333 2 258 205 140 195 128 82 99 98 126 128 136 140 151 162 141
357 355 352 347 342 339 337 334 330 328 326 326 327 323 315 272 351 73 160 173 191 250 260 75 42 68 116 304 280 207 216 129 151 154 124 112 116 89 67 143 139 142 151 137 149
354 352 348 344 340 336 332 330 325 323 323 323 327 328 334 245 252 132 162 168 211 204 231 195 46 51 54 279 285 260 45 103 133 118 110 113 111 108 101 134 137 141 143 145 152
352 347 345 342 337 334 328 323 321 318 318 320 323 319 256 267 149 142 183 161 231 220 260 237 112 96 323 258 303 356 352 132 216 108 114 114 114 95 111 122 137 146 155 162 169
348 347 341 339 334 331 325 318 315 312 310 312 319 299 270 241 349 158 193 195 226 233 258 284 137 155 190 278 291 292 2 351 27 21 308 98 80 132 133 131 136 153 167 172 174
344 342 338 334 333 327 321 314 308 302 301 297 310 270 252 247 255 234 194 203 236 249 265 282 228 179 169 223 64 321 344 15 309 337 303 94 186 162 151 148 157 165 171 172 183
340 336 334 331 329 326 319 308 299 291 278 268 258 234 267 289 191 240 224 210 210 251 267 274 349 263 172 50 39 73 177 28 1 297 289 236 218 186 169 162 171 169 175 174 168
337 333 330 328 327 326 321 293 281 322 212 225 256 293 262 234 201 217 256 226 229 228 253 252 257 238 259 125 204 200 227 200 167 275 251 231 239 173 191 175 178 172 173 172 175
335 331 327 323 324 329 345 355 102 357 266 212 194 242 303 210 190 205 220 225 236 229 234 245 233 246 259 152 200 199 220 148 191 245 247 239 274 221 196 193 179 179 177 178 179
333 329 325 320 317 315 289 263 259 320 285 225 252 242 261 272 232 183 201 197 222 221 227 265 229 241 217 168 212 282 312 278 206 228 175 263 260 264 182 198 180 184 177 181 174
330 328 325 321 314 283 224 245 295 313 279 264 214 227 237 226 233 201 190 197 219 218 235 215 251 243 214 224 213 235 239 293 321 1 344 295 264 269 258 210 194 192 180 182 174
327 327 327 330 331 333 237 243 236 248 298 259 194 210 234 199 242 225 206 190 232 217 229 240 246 260 272 224 217 243 181 247 310 337 259 254 275 321 268 156 349 21 117 192 181
323 324 322 319 303 285 328 333 349 154 305 189 169 171 177 198 161 222 230 197 224 237 219 239 252 264 257 260 187 232 164 227 275 278 311 4 28 270 35 29 330 27 359 221 189
316 318 332 345 203 254 299 296 317 282 248 119 114 149 173 212 227 263 205 183 214 249 261 256 252 245 247 272 220 149 160 246 268 256 346 334 105 347 5 200 221 214 200 251 176
309 300 295 302 237 349 322 288 148 224 276 146 169 168 189 202 216 231 204 188 195 214 252 271 267 265 263 262 262 215 133 287 322 292 221 297 44 272 310 291 310 277 233 159 152
309 302 240 217 240 277 289 212 231 221 250 61 153 184 188 201 202 225 240 204 196 228 223 233 269 254 262 215 201 277 188 186 232 230 211 2 210 248 344 346 338 57 18 313 151
311 259 215 225 217 241 274 215 205 227 217 246 175 184 190 203 199 199 233 205 195 195 231 232 232 255 222 237 138 261 293 244 22 321 36 137 345 325 337 347 320 100 109 294 268
313 278 248 187 160 187 211 252 237 271 314 332 315 230 170 186 202 184 213 216 199 198 200 255 284 268 249 207 193 179 104 1 14 50 351 65 154 153 297 281 284 337 211 330 269
228 254 197 140 153 199 219 234 258 279 288 277 313 324 316 188 195 201 201 234 195 226 198 216 228 274 293 211 182 114 111 47 94 141 142 325 226 188 206 229 260 265 271 293 212
299 252 136 143 153 205 234 239 276 278 295 295 291 302 301 306 293 211 207 195 202 197 212 195 195 249 255 265 189 181 169 139 120 245 194 153 64 359 286 335 336 331 313 301 147
282 270 150 164 222 227 239 244 251 266 271 284 282 271 285 293 326 312 217 209 201 181 192 204 222 257 294 321 164 204 219 169 149 103 246 163 262 305 359 4 332 312 312 267 110
277 259 171 204 244 260 249 247 238 246 255 269 282 269 274 289 282 296 307 270 199 182 168 160 183 184 224 235 236 182 202 218 165 161 219 161 183 192 218 198 252 289 300 207 142
241 257 23 196 225 231 255 279 291 254 236 246 271 257 253 269 282 283 288 291 197 140 123 128 216 225 250 261 295 298 221 210 209 234 182 172 168 190 216 195 198 259 43 326 235
288 345 341 294 294 207 222 239 261 275 259 243 240 259 273 260 250 302 336 319 147 118 116 152 235 234 254 273 266 262 292 220 214 221 233 168 218 196 203 127 262 212 160 338 36
336 337 304 292 306 325 227 216 238 258 278 233 231 214 263 264 305 317 298 294 188 135 167 180 173 188 248 278 297 324 295 289 29 41 71 64 308 122 120 124 262 233 354 57 14